STARLINK-5870, 57222

Orbit data source: Space-Track

STARLINK-5870, 57222 is a payload satellite owned by SpaceX/Seattle (US) in LEO that was launched on Fri, 07 Jul 2023 UTC via an FALCON 9 launch vehicle from the Air Force Western Test Range (AFWTR). Payload-class satellites include a variety of spacecraft equipped with specific instruments for various scientific and technological missions. These include communications satellites like Starlink; space stations such as the ISS; scientific satellites like the Hubble; Earth observation satellites from companies like Planet Labs, Umbra, and HawkEye 360; GPS; miniature CubeSats for education and research; and military/defense satellites.

Loading next visibility...
Identifier
57222, 2023-094E
Orbit
LEO
Country
Flag of USUS
Related business
Manufacturer
SpaceX/Seattle
Mission
Operational Commercial Communications
Bus & Motor
STARLINK, Unknown motor
Mass
305 kg wet, ~290 kg dry
Launch date (UTC)
2023-07-07 (3 years ago)
Launch vehicle
FALCON 9
Launch site
Air Force Western Test Range (AFWTR)
Object type
Payload
Rocket body
Debris
Shape & HBR
Box + 1 Pan, 10.1 m
Radar Cross Section
11.087 m², Large (>1 m²)

Expand to show TLE details & history
Last TLE update: 8 hours ago

TLE from 8 hours ago
0 STARLINK-5870
1 57222U 23094E   26167.78027419 -.00000090  00000-0  62580-5 0  9992
2 57222  43.0030 190.8055 0001649 265.9051  94.1612 15.27576558162908
Epoch: 2026-06-16T18:43Z
TLE epoch observation values (Epoch: 2026-06-16T18:43:35.690Z)
Latitude
-0.00001°
Longitude
4.85938°
Altitude
482.917 km
Speed
7.626 km/s
True Right ascension
12h 43m 13s
True Declination
0° 00' 00"
Sunlit
Object was in daylight at epoch
Visualization orbit readout
Latitude
Unknown
Longitude
Unknown
Altitude
Unknown
Speed
Unknown
Apparent Right ascension
Unknown
Apparent Declination
Unknown
Sunlit
N/A
Visualization observer readout
Local Sidereal Time
13:16:21
Azimuth
Unknown
Elevation
Unknown
Doppler factor
Unknown
Orbital elements
Apogee altitude
486.136 km
Perigee altitude
483.872 km
Semi-major axis
6,863.141 km
Eccentricity
0.00016
Inclination
43.003°
RAAN
190.8055°
Arg. of periapsis
265.9051°
True anomaly
94.18005°
Mean anomaly
94.1612°
Eccentric anomaly
94.17062°
Mean motion
3.81732 °/min
Orbital period
94.31 mins
BSTAR
0.000006258
Loading maneuver chart data...
Computing Atmospheric mass density...
Loading historical data...
Loading historical data...
Loading historical data...
Loading historical data...
Loading historical data...
Loading historical data...
Loading historical data...

Documentation

Showing up to 5 results
|